CHB6532 ZJHK-ZUCK

Flight info

Callsign CHB6532
Flight time 2h 6m
Altitude 38100
Route AGTEL W71 LH R339 BHY W159 IVPUB/K0843S1190 W120 ENKUS DCT JW W2 PA/K0850S1160 W2 SJG B330 ELKAL W179 SUMUN W3 AGTIS/K0837S1190 W3 ASIPO W678 SEGDA
Aircraft A20N/M-SDE2E3FGHIRWXY/LB1

Departure

Time 2026-04-24 11:06
Airport Haikou Meilan International Airport (ZJHK)

Arrival

Time 2026-04-24 13:13
Airport Chongqing Jiangbei International Airport (ZUCK)
Time Latitude Longitude Altitude Speed Heading
2026-04-24 10:09 19.94068 110.46134 77 ft 0 kts 246°
2026-04-24 10:50 19.94070 110.46139 77 ft 2 kts 246°
2026-04-24 10:50 19.94076 110.46153 77 ft 2 kts 246°
2026-04-24 10:50 19.94083 110.46168 77 ft 2 kts 246°
2026-04-24 10:51 19.94089 110.46182 77 ft 2 kts 246°
2026-04-24 10:51 19.94095 110.46197 76 ft 2 kts 246°
2026-04-24 10:51 19.94101 110.46212 76 ft 2 kts 258°
2026-04-24 10:51 19.94101 110.46228 76 ft 2 kts 280°
2026-04-24 10:52 19.94096 110.46242 77 ft 2 kts 302°
2026-04-24 10:52 19.94089 110.46255 77 ft 2 kts 298°
2026-04-24 10:52 19.94086 110.46270 77 ft 2 kts 259°
2026-04-24 10:52 19.94091 110.46284 77 ft 1 kts 230°
2026-04-24 10:53 19.94094 110.46287 77 ft 0 kts 223°
2026-04-24 10:55 19.94093 110.46286 77 ft 0 kts 220°
2026-04-24 10:55 19.94089 110.46284 77 ft 1 kts 197°
2026-04-24 10:55 19.94067 110.46284 77 ft 4 kts 176°
2026-04-24 10:55 19.94028 110.46291 78 ft 6 kts 171°
2026-04-24 10:56 19.93968 110.46294 78 ft 10 kts 179°
2026-04-24 10:56 19.93887 110.46294 78 ft 11 kts 180°
2026-04-24 10:56 19.93800 110.46294 77 ft 13 kts 179°
2026-04-24 10:56 19.93738 110.46238 76 ft 13 kts 266°
2026-04-24 10:57 19.93737 110.46133 76 ft 14 kts 270°
2026-04-24 10:57 19.93736 110.46024 76 ft 14 kts 269°
2026-04-24 10:57 19.93733 110.45917 77 ft 14 kts 269°
2026-04-24 10:57 19.93733 110.45810 77 ft 14 kts 269°
2026-04-24 10:58 19.93732 110.45693 74 ft 17 kts 270°
2026-04-24 10:58 19.93732 110.45551 70 ft 19 kts 269°
2026-04-24 10:58 19.93731 110.45419 70 ft 13 kts 270°
2026-04-24 10:58 19.93730 110.45324 71 ft 12 kts 270°
2026-04-24 10:59 19.93730 110.45236 72 ft 11 kts 269°
2026-04-24 10:59 19.93730 110.45147 72 ft 12 kts 270°
2026-04-24 10:59 19.93770 110.45084 72 ft 11 kts 357°
2026-04-24 10:59 19.93857 110.45082 73 ft 13 kts 359°
2026-04-24 11:00 19.93951 110.45082 75 ft 13 kts
2026-04-24 11:00 19.94061 110.45081 74 ft 17 kts 360°
2026-04-24 11:00 19.94196 110.45081 73 ft 20 kts 360°
2026-04-24 11:00 19.94334 110.45081 74 ft 18 kts 359°
2026-04-24 11:01 19.94459 110.45081 78 ft 16 kts 360°
2026-04-24 11:01 19.94580 110.45081 75 ft 19 kts 360°
2026-04-24 11:01 19.94727 110.45080 68 ft 21 kts 359°
2026-04-24 11:01 19.94877 110.45079 59 ft 23 kts 359°
2026-04-24 11:02 19.95029 110.45078 60 ft 19 kts 360°
2026-04-24 11:02 19.95162 110.45077 57 ft 14 kts 356°
2026-04-24 11:02 19.95200 110.45000 56 ft 13 kts 270°
2026-04-24 11:02 19.95200 110.44903 56 ft 12 kts 271°
2026-04-24 11:03 19.95212 110.44829 60 ft 8 kts 316°
2026-04-24 11:03 19.95261 110.44819 60 ft 0 kts
2026-04-24 11:04 19.95274 110.44819 60 ft 3 kts
2026-04-24 11:05 19.95314 110.44831 59 ft 7 kts 29°
2026-04-24 11:05 19.95361 110.44878 57 ft 10 kts 54°
2026-04-24 11:05 19.95373 110.44933 56 ft 0 kts 90°
2026-04-24 11:05 19.95372 110.45012 56 ft 42 kts 90°
2026-04-24 11:06 19.95373 110.45595 67 ft 114 kts 90°
2026-04-24 11:06 19.95378 110.46673 74 ft 172 kts 92°
2026-04-24 11:06 19.95388 110.47975 669 ft 178 kts 92°
2026-04-24 11:06 19.95463 110.49258 1487 ft 177 kts 71°
2026-04-24 11:07 19.96928 110.51238 3119 ft 172 kts 46°
2026-04-24 11:07 19.97828 110.52100 3680 ft 182 kts 45°
2026-04-24 11:07 19.98584 110.52833 4030 ft 195 kts 44°
2026-04-24 11:08 19.99622 110.53852 4471 ft 213 kts 45°
2026-04-24 11:08 20.00754 110.54985 4876 ft 235 kts 44°
2026-04-24 11:08 20.01989 110.56236 5377 ft 253 kts 43°
2026-04-24 11:08 20.03263 110.57535 6115 ft 258 kts 41°
2026-04-24 11:09 20.04560 110.58851 6607 ft 261 kts 41°
2026-04-24 11:09 20.06002 110.60033 6836 ft 259 kts 21°
2026-04-24 11:09 20.07766 110.60377 6881 ft 265 kts 352°
2026-04-24 11:09 20.09602 110.59952 6883 ft 274 kts 343°
2026-04-24 11:10 20.11488 110.59419 6988 ft 280 kts 343°
2026-04-24 11:10 20.13417 110.58893 7759 ft 284 kts 344°
2026-04-24 11:10 20.15336 110.58387 8820 ft 279 kts 344°
2026-04-24 11:10 20.17172 110.57777 9681 ft 278 kts 330°
2026-04-24 11:11 20.18658 110.56490 10411 ft 280 kts 308°
2026-04-24 11:11 20.19592 110.54623 10842 ft 297 kts 290°
2026-04-24 11:11 20.20296 110.52499 11203 ft 314 kts 290°
2026-04-24 11:11 20.21046 110.50249 11516 ft 332 kts 290°
2026-04-24 11:12 20.21849 110.47869 11922 ft 345 kts 290°
2026-04-24 11:12 20.22664 110.45472 12603 ft 347 kts 290°
2026-04-24 11:12 20.23491 110.43053 13294 ft 350 kts 289°
2026-04-24 11:12 20.24354 110.40636 13969 ft 352 kts 295°
2026-04-24 11:13 20.25764 110.38515 14558 ft 358 kts 314°
2026-04-24 11:13 20.27819 110.36982 15134 ft 367 kts 332°
2026-04-24 11:13 20.30226 110.36072 15713 ft 372 kts 339°
2026-04-24 11:13 20.32716 110.35239 16270 ft 376 kts 339°
2026-04-24 11:14 20.35244 110.34391 16797 ft 380 kts 338°
2026-04-24 11:14 20.37765 110.33535 17293 ft 384 kts 338°
2026-04-24 11:14 20.40313 110.32663 17802 ft 387 kts 338°
2026-04-24 11:14 20.42905 110.31772 18317 ft 389 kts 338°
2026-04-24 11:15 20.45489 110.30884 18810 ft 392 kts 338°
2026-04-24 11:15 20.48138 110.30082 19266 ft 399 kts 343°
2026-04-24 11:15 20.50879 110.29625 19717 ft 407 kts 350°
2026-04-24 11:15 20.53768 110.29544 20172 ft 414 kts 357°
2026-04-24 11:16 20.56681 110.29699 20618 ft 419 kts 359°
2026-04-24 11:16 20.59585 110.29901 21067 ft 422 kts 359°
2026-04-24 11:16 20.62535 110.30111 21561 ft 424 kts 359°
2026-04-24 11:16 20.65476 110.30318 22071 ft 425 kts 359°
2026-04-24 11:17 20.68455 110.30520 22538 ft 427 kts 358°
2026-04-24 11:17 20.71435 110.30719 22982 ft 430 kts 358°
2026-04-24 11:17 20.74442 110.30919 23431 ft 432 kts 358°
2026-04-24 11:17 20.77453 110.31116 23862 ft 435 kts 358°
2026-04-24 11:18 20.80461 110.31314 24283 ft 438 kts 358°
2026-04-24 11:18 20.83533 110.31516 24713 ft 441 kts 358°
2026-04-24 11:18 20.86591 110.31718 25137 ft 443 kts 358°
2026-04-24 11:18 20.89691 110.31923 25533 ft 446 kts 358°
2026-04-24 11:19 20.92840 110.32132 25950 ft 448 kts 357°
2026-04-24 11:19 20.95968 110.32337 26323 ft 451 kts 357°
2026-04-24 11:19 20.99107 110.32543 26690 ft 453 kts 357°
2026-04-24 11:19 21.02262 110.32728 27107 ft 454 kts 356°
2026-04-24 11:20 21.06497 110.32942 27596 ft 455 kts 354°
2026-04-24 11:20 21.08580 110.32822 27780 ft 447 kts 344°
2026-04-24 11:20 21.11533 110.31891 28085 ft 435 kts 328°
2026-04-24 11:20 21.14084 110.30197 28395 ft 424 kts 314°
2026-04-24 11:21 21.16038 110.28024 28680 ft 417 kts 302°
2026-04-24 11:21 21.17530 110.25380 28988 ft 414 kts 295°
2026-04-24 11:21 21.18912 110.22638 29159 ft 419 kts 294°
2026-04-24 11:21 21.20281 110.19914 29374 ft 421 kts 294°
2026-04-24 11:22 21.21684 110.17122 29772 ft 419 kts 295°
2026-04-24 11:22 21.23063 110.14381 30212 ft 416 kts 295°
2026-04-24 11:22 21.24424 110.11677 30571 ft 415 kts 295°
2026-04-24 11:22 21.25790 110.08965 30867 ft 415 kts 295°
2026-04-24 11:23 21.27162 110.06235 31188 ft 414 kts 295°
2026-04-24 11:23 21.28516 110.03538 31536 ft 412 kts 295°
2026-04-24 11:23 21.29887 110.00807 31924 ft 410 kts 295°
2026-04-24 11:23 21.31236 109.98114 32280 ft 408 kts 295°
2026-04-24 11:24 21.32576 109.95445 32610 ft 407 kts 295°
2026-04-24 11:24 21.33913 109.92777 32935 ft 406 kts 295°
2026-04-24 11:24 21.35263 109.90087 33266 ft 406 kts 295°
2026-04-24 11:24 21.36594 109.87437 33590 ft 405 kts 294°
2026-04-24 11:25 21.37935 109.84759 33890 ft 405 kts 294°
2026-04-24 11:25 21.39263 109.82102 34175 ft 404 kts 294°
2026-04-24 11:25 21.41029 109.78573 34563 ft 404 kts 294°
2026-04-24 11:25 21.41920 109.76789 34767 ft 403 kts 294°
2026-04-24 11:26 21.43256 109.74113 35062 ft 402 kts 294°
2026-04-24 11:26 21.44560 109.71504 35324 ft 401 kts 294°
2026-04-24 11:26 21.45890 109.68837 35560 ft 401 kts 294°
2026-04-24 11:26 21.47204 109.66202 35779 ft 401 kts 294°
2026-04-24 11:27 21.48520 109.63566 35981 ft 402 kts 293°
2026-04-24 11:27 21.49834 109.60929 36147 ft 403 kts 293°
2026-04-24 11:27 21.51147 109.58288 36309 ft 403 kts 293°
2026-04-24 11:27 21.52487 109.55595 36483 ft 404 kts 293°
2026-04-24 11:28 21.53837 109.52967 36655 ft 406 kts 297°
2026-04-24 11:28 21.55471 109.50484 36779 ft 412 kts 303°
2026-04-24 11:28 21.59693 109.46158 36990 ft 427 kts 317°
2026-04-24 11:29 21.65004 109.43043 37151 ft 446 kts 332°
2026-04-24 11:29 21.68009 109.42061 37259 ft 455 kts 339°
2026-04-24 11:29 21.71158 109.41489 37349 ft 462 kts 344°
2026-04-24 11:30 21.74363 109.41060 37456 ft 464 kts 345°
2026-04-24 11:30 21.77609 109.40655 37534 ft 465 kts 345°
2026-04-24 11:30 21.84083 109.39848 37736 ft 466 kts 345°
2026-04-24 11:31 21.90510 109.39026 37890 ft 467 kts 345°
2026-04-24 11:31 21.97035 109.38185 38013 ft 469 kts 345°
2026-04-24 11:32 22.03532 109.37343 38084 ft 472 kts 345°
2026-04-24 11:32 22.10091 109.36496 38087 ft 472 kts 345°
2026-04-24 11:33 22.16660 109.35644 38089 ft 471 kts 345°
2026-04-24 11:33 22.23149 109.34931 38092 ft 475 kts 348°
2026-04-24 11:34 22.29885 109.34926 38092 ft 483 kts 355°
2026-04-24 11:34 22.36621 109.35774 38093 ft 490 kts
2026-04-24 11:35 22.43334 109.37098 38095 ft 491 kts
2026-04-24 11:35 22.50094 109.38457 38100 ft 491 kts
2026-04-24 11:36 22.56825 109.39790 38103 ft 493 kts
2026-04-24 11:36 22.63623 109.41132 38099 ft 492 kts
2026-04-24 11:37 22.70385 109.42468 38099 ft 494 kts
2026-04-24 11:37 22.77187 109.43810 38097 ft 493 kts
2026-04-24 11:38 22.84006 109.45153 38093 ft 494 kts
2026-04-24 11:38 22.90748 109.46484 38093 ft 495 kts
2026-04-24 11:39 22.97556 109.47833 38090 ft 494 kts
2026-04-24 11:39 23.04324 109.49178 38087 ft 494 kts
2026-04-24 11:40 23.11095 109.50522 38089 ft 493 kts
2026-04-24 11:40 23.17923 109.51879 38101 ft 495 kts
2026-04-24 11:41 23.24726 109.53234 38109 ft 495 kts
2026-04-24 11:41 23.31518 109.54586 38122 ft 496 kts
2026-04-24 11:42 23.38320 109.55943 38119 ft 495 kts
2026-04-24 11:42 23.45126 109.57302 38118 ft 495 kts
2026-04-24 11:43 23.51913 109.58661 38114 ft 495 kts
2026-04-24 11:43 23.58670 109.60017 38117 ft 493 kts
2026-04-24 11:44 23.65466 109.61378 38126 ft 493 kts
2026-04-24 11:44 23.72264 109.62734 38124 ft 495 kts
2026-04-24 11:45 23.79043 109.64088 38134 ft 495 kts
2026-04-24 11:45 23.85825 109.65448 38126 ft 495 kts
2026-04-24 11:46 23.92698 109.66829 38125 ft 495 kts
2026-04-24 11:46 23.99508 109.68199 38125 ft 495 kts
2026-04-24 11:47 24.06339 109.69575 38126 ft 494 kts
2026-04-24 11:47 24.13146 109.70947 38130 ft 494 kts
2026-04-24 11:48 24.19966 109.72322 38130 ft 494 kts
2026-04-24 11:48 24.26729 109.73689 38131 ft 492 kts
2026-04-24 11:49 24.33477 109.75052 38133 ft 493 kts
2026-04-24 11:49 24.40237 109.76421 38131 ft 492 kts
2026-04-24 11:50 24.46961 109.77788 38127 ft 491 kts
2026-04-24 11:50 24.53704 109.79159 38129 ft 490 kts
2026-04-24 11:51 24.60428 109.80550 38129 ft 491 kts
2026-04-24 11:51 24.67066 109.82530 38140 ft 501 kts
2026-04-24 11:52 24.73634 109.85465 38144 ft 514 kts 17°
2026-04-24 11:52 24.79971 109.89160 38147 ft 516 kts 20°
2026-04-24 11:53 24.86316 109.93005 38147 ft 516 kts 20°
2026-04-24 11:53 24.92626 109.96758 38140 ft 514 kts 18°
2026-04-24 11:54 24.99148 109.99895 38137 ft 503 kts
2026-04-24 11:54 25.05781 110.01949 38152 ft 488 kts
2026-04-24 11:55 25.12480 110.02994 38150 ft 479 kts 355°
2026-04-24 11:55 25.19181 110.03681 38162 ft 476 kts 354°
2026-04-24 11:56 25.25813 110.04379 38155 ft 477 kts 355°
2026-04-24 11:56 25.32354 110.04874 38149 ft 461 kts 346°
2026-04-24 11:57 25.35496 110.04503 38150 ft 448 kts 338°
2026-04-24 11:57 25.38503 110.03659 38147 ft 435 kts 330°
2026-04-24 11:57 25.41293 110.02406 38172 ft 424 kts 323°
2026-04-24 11:57 25.43823 110.00819 38182 ft 414 kts 317°
2026-04-24 11:58 25.48111 109.96790 38197 ft 398 kts 306°
2026-04-24 11:58 25.51866 109.92297 38175 ft 396 kts 305°
2026-04-24 11:59 25.55596 109.87785 38189 ft 397 kts 304°
2026-04-24 11:59 25.59312 109.83281 38199 ft 396 kts 305°
2026-04-24 12:00 25.63021 109.78790 38190 ft 395 kts 306°
2026-04-24 12:00 25.66733 109.74283 38195 ft 395 kts 306°
2026-04-24 12:01 25.70457 109.69767 38193 ft 395 kts 306°
2026-04-24 12:01 25.73882 109.65107 38187 ft 388 kts 300°
2026-04-24 12:02 25.76760 109.60040 38167 ft 384 kts 294°
2026-04-24 12:02 25.79027 109.54744 38185 ft 381 kts 288°
2026-04-24 12:03 25.80721 109.49200 38187 ft 379 kts 284°
2026-04-24 12:03 25.82216 109.43621 38181 ft 378 kts 284°
2026-04-24 12:04 25.83707 109.37994 38195 ft 379 kts 284°
2026-04-24 12:04 25.85181 109.32388 38168 ft 378 kts 284°
2026-04-24 12:05 25.86665 109.26754 38189 ft 379 kts 284°
2026-04-24 12:05 25.88133 109.21151 38187 ft 378 kts 284°
2026-04-24 12:06 25.89607 109.15506 38180 ft 379 kts 284°
2026-04-24 12:06 25.91076 109.09895 38203 ft 379 kts 284°
2026-04-24 12:07 25.92533 109.04287 38190 ft 379 kts 284°
2026-04-24 12:07 25.94030 108.98642 38177 ft 380 kts 285°
2026-04-24 12:08 25.95527 108.93040 38172 ft 380 kts 285°
2026-04-24 12:08 25.97023 108.87409 38181 ft 381 kts 285°
2026-04-24 12:09 25.98523 108.81745 38185 ft 380 kts 285°
2026-04-24 12:09 26.00022 108.76083 38163 ft 381 kts 285°
2026-04-24 12:10 26.01508 108.70457 38184 ft 380 kts 285°
2026-04-24 12:11 26.03755 108.62024 38178 ft 380 kts 285°
2026-04-24 12:11 26.05254 108.56379 38180 ft 380 kts 285°
2026-04-24 12:12 26.06739 108.50774 38177 ft 380 kts 286°
2026-04-24 12:12 26.08235 108.45110 38178 ft 379 kts 286°
2026-04-24 12:13 26.09944 108.39558 38192 ft 380 kts 290°
2026-04-24 12:13 26.12109 108.34132 38211 ft 381 kts 292°
2026-04-24 12:14 26.14418 108.28765 38223 ft 381 kts 292°
2026-04-24 12:14 26.16722 108.23425 38231 ft 381 kts 293°
2026-04-24 12:15 26.19028 108.18072 38240 ft 383 kts 293°
2026-04-24 12:15 26.21322 108.12758 38242 ft 382 kts 293°
2026-04-24 12:16 26.23623 108.07417 38237 ft 381 kts 293°
2026-04-24 12:16 26.25913 108.02098 38237 ft 382 kts 293°
2026-04-24 12:17 26.28228 107.96714 38234 ft 382 kts 293°
2026-04-24 12:17 26.30516 107.91384 38233 ft 381 kts 294°
2026-04-24 12:18 26.32814 107.86031 38236 ft 382 kts 293°
2026-04-24 12:18 26.35093 107.80704 38226 ft 382 kts 293°
2026-04-24 12:19 26.37383 107.75357 38231 ft 382 kts 293°
2026-04-24 12:19 26.39667 107.70007 38237 ft 382 kts 293°
2026-04-24 12:20 26.41953 107.64650 38235 ft 382 kts 293°
2026-04-24 12:20 26.44245 107.59274 38248 ft 381 kts 293°
2026-04-24 12:21 26.46506 107.53954 38246 ft 380 kts 294°
2026-04-24 12:21 26.48781 107.48612 38259 ft 381 kts 293°
2026-04-24 12:22 26.51045 107.43253 38267 ft 381 kts 294°
2026-04-24 12:22 26.53324 107.37872 38260 ft 383 kts 294°
2026-04-24 12:23 26.55602 107.32485 38269 ft 381 kts 293°
2026-04-24 12:23 26.57815 107.27264 38269 ft 381 kts 293°
2026-04-24 12:24 26.60005 107.22083 38275 ft 381 kts 294°
2026-04-24 12:24 26.62275 107.16706 38267 ft 382 kts 293°
2026-04-24 12:25 26.64553 107.11326 38267 ft 382 kts 294°
2026-04-24 12:25 26.66846 107.05936 38261 ft 382 kts 294°
2026-04-24 12:25 26.67980 107.03268 38089 ft 383 kts 294°
2026-04-24 12:26 26.69122 107.00581 37792 ft 380 kts 294°
2026-04-24 12:26 26.70249 106.97916 37496 ft 378 kts 294°
2026-04-24 12:26 26.71377 106.95251 37212 ft 375 kts 295°
2026-04-24 12:26 26.72487 106.92629 36937 ft 372 kts 294°
2026-04-24 12:27 26.73594 106.90015 36654 ft 372 kts 294°
2026-04-24 12:27 26.74700 106.87400 36369 ft 372 kts 295°
2026-04-24 12:27 26.75904 106.84838 36077 ft 374 kts 302°
2026-04-24 12:27 26.77523 106.82557 35795 ft 377 kts 311°
2026-04-24 12:28 26.79521 106.80630 35525 ft 381 kts 321°
2026-04-24 12:28 26.81822 106.79134 35242 ft 386 kts 329°
2026-04-24 12:28 26.84375 106.78127 34968 ft 395 kts 340°
2026-04-24 12:28 26.87152 106.77663 34693 ft 404 kts 348°
2026-04-24 12:29 26.89948 106.77467 34419 ft 404 kts 348°
2026-04-24 12:29 26.92782 106.77299 34147 ft 405 kts 349°
2026-04-24 12:29 26.95614 106.77142 33873 ft 403 kts 349°
2026-04-24 12:29 26.98423 106.76988 33588 ft 403 kts 349°
2026-04-24 12:30 27.01237 106.76840 33331 ft 406 kts 349°
2026-04-24 12:30 27.04049 106.76691 33082 ft 403 kts 349°
2026-04-24 12:30 27.06880 106.76543 32821 ft 405 kts 350°
2026-04-24 12:30 27.09692 106.76396 32565 ft 407 kts 350°
2026-04-24 12:31 27.12489 106.76251 32313 ft 409 kts 349°
2026-04-24 12:31 27.15367 106.76101 32053 ft 409 kts 349°
2026-04-24 12:31 27.18203 106.75954 31795 ft 409 kts 350°
2026-04-24 12:31 27.20985 106.75809 31540 ft 409 kts 350°
2026-04-24 12:32 27.23848 106.75663 31282 ft 411 kts 350°
2026-04-24 12:32 27.26730 106.75514 31024 ft 412 kts 350°
2026-04-24 12:32 27.29627 106.75366 30764 ft 414 kts 350°
2026-04-24 12:32 27.32511 106.75216 30504 ft 414 kts 350°
2026-04-24 12:33 27.35379 106.75067 30246 ft 415 kts 351°
2026-04-24 12:33 27.38277 106.74991 29988 ft 418 kts 352°
2026-04-24 12:33 27.41227 106.74979 29729 ft 419 kts 353°
2026-04-24 12:33 27.44145 106.74978 29474 ft 420 kts 353°
2026-04-24 12:34 27.47115 106.74980 29213 ft 422 kts 353°
2026-04-24 12:34 27.50073 106.74980 28955 ft 421 kts 353°
2026-04-24 12:34 27.52992 106.74983 28700 ft 419 kts 353°
2026-04-24 12:34 27.55894 106.74986 28447 ft 417 kts 353°
2026-04-24 12:35 27.58785 106.74989 28193 ft 414 kts 353°
2026-04-24 12:35 27.61726 106.74993 27929 ft 414 kts 353°
2026-04-24 12:35 27.64615 106.74995 27677 ft 413 kts 353°
2026-04-24 12:35 27.67471 106.74995 27420 ft 412 kts 353°
2026-04-24 12:36 27.70351 106.74998 27167 ft 411 kts 353°
2026-04-24 12:36 27.73203 106.75002 26915 ft 409 kts 353°
2026-04-24 12:36 27.76047 106.75005 26662 ft 406 kts 353°
2026-04-24 12:36 27.78871 106.75007 26410 ft 405 kts 353°
2026-04-24 12:37 27.81717 106.75010 26158 ft 403 kts 353°
2026-04-24 12:37 27.84536 106.75013 25906 ft 402 kts 354°
2026-04-24 12:37 27.87328 106.75014 25768 ft 402 kts 354°
2026-04-24 12:37 27.90121 106.75016 25766 ft 401 kts 354°
2026-04-24 12:38 27.92943 106.75021 25739 ft 403 kts 354°
2026-04-24 12:38 27.95741 106.75021 25482 ft 402 kts 354°
2026-04-24 12:38 27.98550 106.75024 25235 ft 400 kts 354°
2026-04-24 12:39 28.06880 106.75031 24489 ft 396 kts 355°
2026-04-24 12:39 28.09645 106.75035 24236 ft 394 kts 355°
2026-04-24 12:39 28.12349 106.75040 23988 ft 392 kts 355°
2026-04-24 12:40 28.15110 106.75045 23738 ft 391 kts 355°
2026-04-24 12:40 28.17845 106.75047 23490 ft 390 kts 355°
2026-04-24 12:40 28.20606 106.75050 23239 ft 388 kts 355°
2026-04-24 12:40 28.23296 106.75056 22998 ft 386 kts 356°
2026-04-24 12:41 28.25974 106.75063 22751 ft 385 kts 355°
2026-04-24 12:41 28.28686 106.75069 22499 ft 383 kts 355°
2026-04-24 12:41 28.31350 106.74992 22246 ft 380 kts 353°
2026-04-24 12:41 28.33989 106.74754 21996 ft 376 kts 350°
2026-04-24 12:42 28.36571 106.74395 21753 ft 373 kts 349°
2026-04-24 12:42 28.39185 106.74013 21501 ft 373 kts 349°
2026-04-24 12:42 28.41727 106.73638 21254 ft 371 kts 349°
2026-04-24 12:42 28.44290 106.73262 21007 ft 369 kts 349°
2026-04-24 12:43 28.46854 106.72884 20759 ft 368 kts 349°
2026-04-24 12:43 28.49415 106.72504 20509 ft 366 kts 349°
2026-04-24 12:43 28.51936 106.72131 20259 ft 364 kts 349°
2026-04-24 12:43 28.54419 106.71764 20012 ft 363 kts 349°
2026-04-24 12:44 28.56956 106.71388 19756 ft 361 kts 349°
2026-04-24 12:44 28.59457 106.71019 19502 ft 359 kts 349°
2026-04-24 12:44 28.61940 106.70652 19246 ft 358 kts 349°
2026-04-24 12:44 28.64418 106.70285 18990 ft 356 kts 349°
2026-04-24 12:45 28.66882 106.69919 18735 ft 356 kts 349°
2026-04-24 12:45 28.69370 106.69572 18484 ft 355 kts 351°
2026-04-24 12:45 28.71848 106.69337 18228 ft 355 kts 353°
2026-04-24 12:45 28.74309 106.69227 17979 ft 354 kts 355°
2026-04-24 12:46 28.76774 106.69206 17731 ft 352 kts 356°
2026-04-24 12:46 28.79237 106.69199 17488 ft 352 kts 356°
2026-04-24 12:46 28.81688 106.69201 17248 ft 352 kts 356°
2026-04-24 12:46 28.84161 106.69201 17011 ft 351 kts 356°
2026-04-24 12:47 28.87434 106.69199 16688 ft 350 kts 356°
2026-04-24 12:47 28.89058 106.69197 16528 ft 350 kts 357°
2026-04-24 12:47 28.91505 106.69193 16288 ft 349 kts 357°
2026-04-24 12:47 28.93949 106.69190 16042 ft 349 kts 357°
2026-04-24 12:48 28.96377 106.69244 15801 ft 349 kts 359°
2026-04-24 12:48 28.98826 106.69422 15559 ft 351 kts
2026-04-24 12:48 29.01242 106.69728 15320 ft 352 kts
2026-04-24 12:48 29.03685 106.70172 15078 ft 352 kts
2026-04-24 12:49 29.06079 106.70736 14832 ft 352 kts
2026-04-24 12:49 29.08469 106.71356 14587 ft 352 kts 10°
2026-04-24 12:49 29.10817 106.71975 14348 ft 352 kts 11°
2026-04-24 12:49 29.13204 106.72605 14100 ft 351 kts 11°
2026-04-24 12:50 29.15573 106.73230 13857 ft 352 kts 11°
2026-04-24 12:50 29.17967 106.73860 13616 ft 351 kts 11°
2026-04-24 12:50 29.20387 106.74496 13370 ft 350 kts 11°
2026-04-24 12:50 29.22779 106.75077 13126 ft 349 kts
2026-04-24 12:51 29.25173 106.75525 12882 ft 349 kts
2026-04-24 12:51 29.27594 106.75843 12641 ft 348 kts
2026-04-24 12:51 29.29997 106.76028 12403 ft 347 kts
2026-04-24 12:51 29.32439 106.76161 12159 ft 346 kts
2026-04-24 12:52 29.34812 106.76284 11923 ft 344 kts
2026-04-24 12:52 29.37235 106.76409 11679 ft 344 kts
2026-04-24 12:52 29.40417 106.76574 11353 ft 343 kts
2026-04-24 12:52 29.42025 106.76657 11191 ft 343 kts
2026-04-24 12:53 29.44408 106.76781 10948 ft 343 kts
2026-04-24 12:53 29.46819 106.76907 10712 ft 339 kts
2026-04-24 12:53 29.49152 106.77029 10388 ft 330 kts
2026-04-24 12:53 29.51428 106.77148 10053 ft 323 kts
2026-04-24 12:54 29.53643 106.77264 9872 ft 311 kts
2026-04-24 12:54 29.55757 106.77374 9751 ft 298 kts
2026-04-24 12:54 29.57811 106.77481 9627 ft 285 kts
2026-04-24 12:54 29.59761 106.77584 9505 ft 278 kts
2026-04-24 12:55 29.61744 106.77689 9382 ft 278 kts
2026-04-24 12:55 29.63683 106.77792 9258 ft 278 kts
2026-04-24 12:55 29.65630 106.77895 9137 ft 279 kts
2026-04-24 12:55 29.67563 106.77997 9017 ft 278 kts
2026-04-24 12:56 29.69509 106.78158 8897 ft 278 kts
2026-04-24 12:56 29.71423 106.78468 8782 ft 278 kts 11°
2026-04-24 12:56 29.73325 106.78937 8662 ft 278 kts 14°
2026-04-24 12:56 29.75229 106.79558 8537 ft 278 kts 17°
2026-04-24 12:57 29.77090 106.80206 8417 ft 277 kts 17°
2026-04-24 12:57 29.78942 106.80856 8302 ft 277 kts 17°
2026-04-24 12:57 29.80795 106.81503 8186 ft 276 kts 17°
2026-04-24 12:57 29.82631 106.82143 8064 ft 276 kts 17°
2026-04-24 12:58 29.84479 106.82787 7948 ft 275 kts 17°
2026-04-24 12:58 29.86312 106.83425 7829 ft 275 kts 17°
2026-04-24 12:58 29.88161 106.84070 7714 ft 275 kts 17°
2026-04-24 12:58 29.89992 106.84708 7600 ft 274 kts 17°
2026-04-24 12:59 29.91824 106.85347 7483 ft 274 kts 17°
2026-04-24 12:59 29.93672 106.85992 7366 ft 275 kts 17°
2026-04-24 12:59 29.95516 106.86637 7247 ft 275 kts 17°
2026-04-24 12:59 29.97353 106.87279 7132 ft 275 kts 17°
2026-04-24 13:00 29.99187 106.87919 7012 ft 275 kts 17°
2026-04-24 13:00 30.01060 106.88573 6886 ft 275 kts 17°
2026-04-24 13:00 30.02906 106.89219 6762 ft 274 kts 17°
2026-04-24 13:00 30.04729 106.89857 6639 ft 274 kts 17°
2026-04-24 13:01 30.06552 106.90495 6519 ft 274 kts 17°
2026-04-24 13:01 30.08357 106.91126 6390 ft 264 kts 17°
2026-04-24 13:01 30.09994 106.91698 6267 ft 254 kts 17°
2026-04-24 13:01 30.11659 106.92281 6138 ft 244 kts 17°
2026-04-24 13:02 30.13336 106.92499 5981 ft 234 kts 346°
2026-04-24 13:02 30.14703 106.91550 5965 ft 231 kts 309°
2026-04-24 13:02 30.15402 106.89844 5974 ft 233 kts 286°
2026-04-24 13:02 30.15819 106.88042 5970 ft 233 kts 286°
2026-04-24 13:03 30.16266 106.86207 5968 ft 232 kts 287°
2026-04-24 13:03 30.16717 106.84400 5968 ft 233 kts 287°
2026-04-24 13:03 30.17087 106.82585 5961 ft 233 kts 279°
2026-04-24 13:03 30.16980 106.80744 5949 ft 233 kts 249°
2026-04-24 13:04 30.16055 106.79269 5938 ft 220 kts 214°
2026-04-24 13:04 30.14690 106.78706 5956 ft 203 kts 179°
2026-04-24 13:04 30.13341 106.79113 6028 ft 202 kts 156°
2026-04-24 13:04 30.11973 106.79533 5996 ft 202 kts 172°
2026-04-24 13:05 30.10560 106.79660 5979 ft 202 kts 179°
2026-04-24 13:05 30.09158 106.79521 5973 ft 202 kts 189°
2026-04-24 13:05 30.07784 106.79155 5973 ft 202 kts 195°
2026-04-24 13:05 30.06407 106.78683 5971 ft 202 kts 197°
2026-04-24 13:06 30.05056 106.78200 5971 ft 202 kts 197°
2026-04-24 13:06 30.03704 106.77717 5971 ft 202 kts 197°
2026-04-24 13:06 30.02348 106.77237 5973 ft 202 kts 197°
2026-04-24 13:06 30.00990 106.76761 5969 ft 202 kts 197°
2026-04-24 13:07 29.99647 106.76293 5969 ft 202 kts 197°
2026-04-24 13:07 29.98284 106.75822 5913 ft 203 kts 197°
2026-04-24 13:07 29.96929 106.75354 5685 ft 202 kts 196°
2026-04-24 13:07 29.95573 106.74887 5423 ft 200 kts 197°
2026-04-24 13:08 29.94231 106.74425 5161 ft 199 kts 196°
2026-04-24 13:08 29.92897 106.73965 4903 ft 199 kts 196°
2026-04-24 13:08 29.91568 106.73508 4646 ft 199 kts 196°
2026-04-24 13:09 29.88924 106.72596 4128 ft 193 kts 196°
2026-04-24 13:09 29.87633 106.72151 3869 ft 185 kts 196°
2026-04-24 13:09 29.86420 106.71732 3618 ft 173 kts 196°
2026-04-24 13:09 29.85297 106.71345 3391 ft 163 kts 196°
2026-04-24 13:10 29.84226 106.70976 3220 ft 154 kts 196°
2026-04-24 13:10 29.83236 106.70633 3011 ft 147 kts 196°
2026-04-24 13:10 29.82253 106.70294 2836 ft 146 kts 196°
2026-04-24 13:10 29.81279 106.69958 2650 ft 145 kts 197°
2026-04-24 13:11 29.80311 106.69624 2465 ft 144 kts 197°
2026-04-24 13:11 29.79354 106.69295 2274 ft 143 kts 197°
2026-04-24 13:11 29.78398 106.68965 2085 ft 142 kts 198°
2026-04-24 13:11 29.77447 106.68633 1901 ft 141 kts 198°
2026-04-24 13:12 29.76500 106.68309 1719 ft 140 kts 198°
2026-04-24 13:12 29.75570 106.67988 1527 ft 139 kts 198°
2026-04-24 13:12 29.74632 106.67661 1384 ft 137 kts 198°
2026-04-24 13:12 29.73830 106.67385 1375 ft 94 kts 197°
2026-04-24 13:13 29.73392 106.67210 1374 ft 38 kts 211°
2026-04-24 13:13 29.73256 106.67078 1374 ft 21 kts 224°
2026-04-24 13:13 29.73162 106.66974 1374 ft 16 kts 220°
2026-04-24 13:13 29.73057 106.66914 1374 ft 16 kts 197°
2026-04-24 13:14 29.72947 106.66876 1374 ft 16 kts 197°
2026-04-24 13:14 29.72834 106.66837 1374 ft 16 kts 197°
2026-04-24 13:14 29.72720 106.66798 1374 ft 17 kts 197°
2026-04-24 13:14 29.72630 106.66742 1373 ft 12 kts 262°
2026-04-24 13:15 29.72650 106.66650 1373 ft 12 kts 287°
2026-04-24 13:15 29.72676 106.66554 1373 ft 12 kts 287°
2026-04-24 13:15 29.72703 106.66454 1373 ft 13 kts 287°
2026-04-24 13:15 29.72731 106.66348 1373 ft 14 kts 287°
2026-04-24 13:16 29.72754 106.66238 1373 ft 14 kts 269°
2026-04-24 13:16 29.72689 106.66178 1373 ft 13 kts 197°
2026-04-24 13:16 29.72598 106.66146 1373 ft 13 kts 197°
2026-04-24 13:16 29.72542 106.66084 1373 ft 12 kts 276°
2026-04-24 13:17 29.72565 106.65990 1373 ft 11 kts 287°
2026-04-24 13:17 29.72587 106.65903 1373 ft 11 kts 288°
2026-04-24 13:17 29.72628 106.65836 1373 ft 9 kts 330°
2026-04-24 13:17 29.72691 106.65794 1373 ft 10 kts 330°
2026-04-24 13:18 29.72745 106.65756 1373 ft 6 kts 319°
2026-04-24 13:18 29.72766 106.65708 1373 ft 5 kts 295°
2026-04-24 13:18 29.72788 106.65688 1373 ft 4 kts 338°
2026-04-24 13:18 29.72815 106.65681 1373 ft 3 kts 351°
2026-04-24 13:19 29.72837 106.65677 1373 ft 3 kts 353°
2026-04-24 13:19 29.72851 106.65675 1373 ft 1 kts 353°
2026-04-24 13:19 29.72862 106.65673 1373 ft 1 kts 353°
2026-04-24 13:19 29.72864 106.65673 1373 ft 0 kts 353°